Terminal Aerodrome Forecast
Issued by NWS

Home | Current Version | Previous Version | Graphics & Text | Print | Product List | Glossary On
Versions: 1 2 3 4 5 6 7 8 9 10 11 12 13 14 15 16 17 18 19 20 21 22 23 24 25 26 27 28 29 30 31 32 33 34 35
000
FTUS43 KGRB 121729
TAFRHI
TAF
KRHI 121729Z 1218/1318 30014G24KT P6SM -SHSN SCT012 BKN025
      TEMPO 1218/1222 1 1/2SM -SHSN BKN012
     FM130100 29007KT P6SM BKN030
     FM131300 29005KT P6SM SCT025=

USA.gov is the U.S. government's official web portal to all federal, state and local government web resources and services.